Location: *
(46.3500°N, 10.9000°E)
Time: 08:31:35
(UTC+00:00)

Cosmos 1300 - Pass Details

Date: 09 April 2020
Orbit: 511 x 515 km, 82.5° (Epoch: 23 May)

Event Time Altitude Azimuth Distance (km) Brightness Sun altitude
Exits shadow 18:43:08 - 145° (SE) 1,994 5.2 -8.5°
Reaches altitude 10° 18:43:54 10° 139° (SE) 1,738 4.8 -8.7°
Maximum altitude 18:46:50 21° 88° (E) 1,186 4.0 -9.1°
Drops below altitude 10° 18:49:46 10° 38° (NE) 1,751 5.2 -9.6°
Sets 18:52:16 0° 23° (NNE) 2,644 6.3 -10.0°
